THA112 RJFF-PGUM

Flight info

Callsign THA112
Flight time 3h 47m
Altitude 38000
Route YAMGA HKC/N0483F370 G339 HIDEK/N0476F390 G339 SHAWS
Aircraft A346/H-SDE2E3FGHIJ3J4J5M1RWXY/LB1D1

Departure

Time 2026-04-26 10:18
Airport Fukuoka Airport (RJFF)

Arrival

Time 2026-04-26 14:05
Airport Antonio B. Won Pat International Airport (PGUM)
Time Latitude Longitude Altitude Speed Heading
2026-04-26 10:04 33.58699 130.45320 39 ft 0 kts 37°
2026-04-26 10:09 33.58690 130.45312 41 ft 3 kts 40°
2026-04-26 10:09 33.58677 130.45296 42 ft 3 kts 52°
2026-04-26 10:09 33.58668 130.45278 42 ft 3 kts 71°
2026-04-26 10:10 33.58665 130.45260 43 ft 3 kts 96°
2026-04-26 10:10 33.58668 130.45247 44 ft 3 kts 128°
2026-04-26 10:10 33.58675 130.45240 44 ft 1 kts 150°
2026-04-26 10:10 33.58676 130.45239 44 ft 0 kts 150°
2026-04-26 10:14 33.58673 130.45241 44 ft 4 kts 150°
2026-04-26 10:15 33.58616 130.45282 43 ft 12 kts 149°
2026-04-26 10:15 33.58534 130.45338 43 ft 14 kts 150°
2026-04-26 10:15 33.58442 130.45400 43 ft 16 kts 150°
2026-04-26 10:15 33.58331 130.45476 41 ft 20 kts 150°
2026-04-26 10:16 33.58206 130.45562 43 ft 21 kts 150°
2026-04-26 10:16 33.58074 130.45649 46 ft 22 kts 150°
2026-04-26 10:16 33.57939 130.45741 47 ft 22 kts 150°
2026-04-26 10:16 33.57805 130.45834 50 ft 23 kts 149°
2026-04-26 10:17 33.57663 130.45933 50 ft 23 kts 155°
2026-04-26 10:17 33.57534 130.45859 53 ft 24 kts 254°
2026-04-26 10:17 33.57642 130.45715 50 ft 36 kts 330°
2026-04-26 10:17 33.58133 130.45380 47 ft 123 kts 330°
2026-04-26 10:18 33.59100 130.44736 94 ft 188 kts 331°
2026-04-26 10:18 33.60324 130.43924 686 ft 211 kts 330°
2026-04-26 10:18 33.61573 130.43063 1726 ft 202 kts 330°
2026-04-26 10:18 33.62796 130.42223 2554 ft 208 kts 331°
2026-04-26 10:19 33.64188 130.41558 3097 ft 226 kts 354°
2026-04-26 10:19 33.65795 130.41753 3659 ft 243 kts 22°
2026-04-26 10:19 33.67212 130.42938 4234 ft 259 kts 52°
2026-04-26 10:19 33.68168 130.44818 5027 ft 267 kts 61°
2026-04-26 10:20 33.68859 130.46899 5907 ft 272 kts 82°
2026-04-26 10:20 33.68704 130.49165 6805 ft 277 kts 109°
2026-04-26 10:20 33.67692 130.51131 7668 ft 282 kts 136°
2026-04-26 10:20 33.66056 130.52463 8488 ft 288 kts 151°
2026-04-26 10:21 33.64272 130.53604 9284 ft 294 kts 155°
2026-04-26 10:21 33.62387 130.54602 10109 ft 297 kts 158°
2026-04-26 10:21 33.60438 130.55566 10801 ft 309 kts 159°
2026-04-26 10:21 33.58397 130.56577 11259 ft 326 kts 159°
2026-04-26 10:22 33.56246 130.57645 11685 ft 343 kts 159°
2026-04-26 10:22 33.53983 130.58770 12087 ft 361 kts 159°
2026-04-26 10:22 33.51619 130.59953 12616 ft 373 kts 159°
2026-04-26 10:22 33.49213 130.61163 13427 ft 377 kts 159°
2026-04-26 10:23 33.46789 130.62382 14264 ft 379 kts 159°
2026-04-26 10:23 33.44320 130.63542 15026 ft 383 kts 162°
2026-04-26 10:23 33.41778 130.64530 15785 ft 386 kts 165°
2026-04-26 10:23 33.39219 130.65398 16526 ft 389 kts 166°
2026-04-26 10:24 33.36566 130.66301 17252 ft 393 kts 166°
2026-04-26 10:24 33.33960 130.67184 17939 ft 396 kts 166°
2026-04-26 10:24 33.31295 130.68085 18606 ft 400 kts 166°
2026-04-26 10:24 33.28604 130.68990 19255 ft 404 kts 166°
2026-04-26 10:25 33.25881 130.69907 19839 ft 408 kts 166°
2026-04-26 10:25 33.23133 130.70833 20469 ft 413 kts 166°
2026-04-26 10:25 33.20358 130.71767 21095 ft 416 kts 166°
2026-04-26 10:25 33.17513 130.72724 21665 ft 421 kts 166°
2026-04-26 10:26 33.14717 130.73663 22234 ft 425 kts 167°
2026-04-26 10:26 33.11817 130.74401 22776 ft 428 kts 173°
2026-04-26 10:26 33.08850 130.74727 23311 ft 430 kts 180°
2026-04-26 10:26 33.05855 130.74635 23843 ft 432 kts 186°
2026-04-26 10:27 33.02853 130.74301 24364 ft 435 kts 187°
2026-04-26 10:27 32.99834 130.73936 24907 ft 437 kts 187°
2026-04-26 10:27 32.96805 130.73565 25521 ft 438 kts 187°
2026-04-26 10:27 32.93773 130.73193 26159 ft 438 kts 187°
2026-04-26 10:28 32.90744 130.72822 26775 ft 437 kts 188°
2026-04-26 10:28 32.87718 130.72454 27370 ft 437 kts 188°
2026-04-26 10:28 32.84692 130.72084 27950 ft 437 kts 188°
2026-04-26 10:28 32.81671 130.71716 28532 ft 436 kts 188°
2026-04-26 10:29 32.78669 130.71353 29292 ft 430 kts 188°
2026-04-26 10:29 32.75721 130.70997 30201 ft 421 kts 188°
2026-04-26 10:29 32.72836 130.70650 31109 ft 412 kts 189°
2026-04-26 10:29 32.70010 130.70309 31973 ft 404 kts 189°
2026-04-26 10:30 32.67239 130.69973 32796 ft 396 kts 189°
2026-04-26 10:30 32.64520 130.69645 33511 ft 390 kts 189°
2026-04-26 10:30 32.61831 130.69320 34163 ft 385 kts 189°
2026-04-26 10:30 32.59182 130.69001 34786 ft 381 kts 189°
2026-04-26 10:31 32.56556 130.68685 35291 ft 379 kts 190°
2026-04-26 10:31 32.53936 130.68369 35672 ft 378 kts 190°
2026-04-26 10:31 32.51319 130.68053 36029 ft 378 kts 190°
2026-04-26 10:31 32.48702 130.67734 36362 ft 378 kts 190°
2026-04-26 10:32 32.46079 130.67418 36619 ft 379 kts 190°
2026-04-26 10:32 32.43447 130.67099 36828 ft 381 kts 190°
2026-04-26 10:32 32.40807 130.66780 37076 ft 381 kts 190°
2026-04-26 10:32 32.38174 130.66464 37393 ft 380 kts 190°
2026-04-26 10:33 32.35555 130.66150 37706 ft 378 kts 191°
2026-04-26 10:33 32.32935 130.65837 37863 ft 379 kts 191°
2026-04-26 10:33 32.27675 130.65205 37860 ft 380 kts 191°
2026-04-26 10:34 32.22399 130.64570 37881 ft 381 kts 191°
2026-04-26 10:34 32.17125 130.63939 37875 ft 381 kts 191°
2026-04-26 10:35 32.11854 130.63308 37879 ft 381 kts 191°
2026-04-26 10:35 32.06583 130.62680 37876 ft 381 kts 191°
2026-04-26 10:36 32.01313 130.62053 37877 ft 381 kts 191°
2026-04-26 10:36 31.96076 130.61431 37868 ft 382 kts 191°
2026-04-26 10:37 31.90784 130.60803 37879 ft 383 kts 191°
2026-04-26 10:37 31.85484 130.60175 37882 ft 383 kts 191°
2026-04-26 10:38 31.80187 130.59551 37889 ft 383 kts 190°
2026-04-26 10:38 31.74845 130.59316 37890 ft 386 kts 185°
2026-04-26 10:39 31.69453 130.59719 37887 ft 391 kts 180°
2026-04-26 10:39 31.64057 130.60777 37889 ft 396 kts 175°
2026-04-26 10:40 31.58705 130.62507 37887 ft 401 kts 171°
2026-04-26 10:40 31.53376 130.64480 37894 ft 402 kts 171°
2026-04-26 10:41 31.48048 130.66464 37889 ft 402 kts 171°
2026-04-26 10:41 31.42708 130.68461 37889 ft 403 kts 171°
2026-04-26 10:42 31.37365 130.70462 37887 ft 403 kts 171°
2026-04-26 10:42 31.32024 130.72460 37891 ft 403 kts 171°
2026-04-26 10:43 31.26683 130.74457 37881 ft 403 kts 171°
2026-04-26 10:43 31.21336 130.76457 37882 ft 403 kts 171°
2026-04-26 10:44 31.15995 130.78456 37879 ft 403 kts 172°
2026-04-26 10:44 31.10685 130.80435 37878 ft 404 kts 172°
2026-04-26 10:45 31.05329 130.82427 37876 ft 404 kts 172°
2026-04-26 10:45 30.99978 130.84417 37882 ft 404 kts 172°
2026-04-26 10:46 30.94626 130.86406 37876 ft 404 kts 172°
2026-04-26 10:46 30.89270 130.88393 37888 ft 404 kts 172°
2026-04-26 10:47 30.83915 130.90378 37881 ft 404 kts 172°
2026-04-26 10:47 30.78553 130.92363 37879 ft 405 kts 172°
2026-04-26 10:48 30.73177 130.94354 37884 ft 405 kts 172°
2026-04-26 10:48 30.67806 130.96343 37884 ft 406 kts 171°
2026-04-26 10:49 30.62490 130.98686 37887 ft 412 kts 167°
2026-04-26 10:49 30.57302 131.01624 37885 ft 419 kts 162°
2026-04-26 10:50 30.53080 131.04557 37890 ft 425 kts 158°
2026-04-26 10:50 30.47312 131.08901 37890 ft 426 kts 158°
2026-04-26 10:51 30.39855 131.14515 37889 ft 426 kts 158°
2026-04-26 10:52 30.34886 131.18257 37887 ft 426 kts 158°
2026-04-26 10:52 30.29920 131.21994 37889 ft 425 kts 158°
2026-04-26 10:53 30.24943 131.25733 37890 ft 427 kts 158°
2026-04-26 10:53 30.19964 131.29470 37890 ft 426 kts 159°
2026-04-26 10:54 30.13332 131.34426 37886 ft 426 kts 159°
2026-04-26 10:54 30.08352 131.38142 37883 ft 426 kts 159°
2026-04-26 10:55 30.03368 131.41861 37884 ft 426 kts 159°
2026-04-26 10:55 29.98394 131.45565 37888 ft 426 kts 159°
2026-04-26 10:56 29.93395 131.49284 37886 ft 428 kts 159°
2026-04-26 10:56 29.88384 131.53011 37886 ft 428 kts 159°
2026-04-26 10:57 29.83407 131.56708 37892 ft 429 kts 159°
2026-04-26 10:57 29.78357 131.60457 37893 ft 429 kts 159°
2026-04-26 10:58 29.73343 131.64175 37886 ft 429 kts 159°
2026-04-26 10:58 29.68328 131.67890 37888 ft 429 kts 159°
2026-04-26 10:59 29.63347 131.71575 37893 ft 429 kts 159°
2026-04-26 10:59 29.58339 131.75345 37890 ft 433 kts 157°
2026-04-26 11:00 29.53429 131.79410 37890 ft 435 kts 156°
2026-04-26 11:00 29.48520 131.83478 37898 ft 435 kts 156°
2026-04-26 11:01 29.43610 131.87545 37898 ft 435 kts 156°
2026-04-26 11:01 29.38700 131.91608 37893 ft 435 kts 156°
2026-04-26 11:02 29.33788 131.95661 37888 ft 435 kts 156°
2026-04-26 11:02 29.28859 131.99719 37888 ft 436 kts 156°
2026-04-26 11:03 29.23921 132.03781 37889 ft 439 kts 156°
2026-04-26 11:03 29.18947 132.07870 37884 ft 441 kts 156°
2026-04-26 11:04 29.13953 132.11972 37893 ft 442 kts 156°
2026-04-26 11:04 29.08945 132.16083 37888 ft 444 kts 156°
2026-04-26 11:05 29.03921 132.20201 37896 ft 444 kts 156°
2026-04-26 11:05 28.98889 132.24320 37896 ft 445 kts 156°
2026-04-26 11:06 28.93846 132.28442 37897 ft 446 kts 156°
2026-04-26 11:06 28.88794 132.32568 37898 ft 447 kts 156°
2026-04-26 11:07 28.83763 132.36671 37900 ft 447 kts 156°
2026-04-26 11:07 28.78694 132.40800 37898 ft 448 kts 156°
2026-04-26 11:08 28.73607 132.44938 37911 ft 449 kts 156°
2026-04-26 11:08 28.68516 132.49074 37917 ft 449 kts 156°
2026-04-26 11:09 28.63412 132.53217 37916 ft 451 kts 156°
2026-04-26 11:09 28.58298 132.57363 37917 ft 451 kts 156°
2026-04-26 11:10 28.53181 132.61507 37916 ft 451 kts 156°
2026-04-26 11:10 28.48064 132.65647 37917 ft 451 kts 156°
2026-04-26 11:11 28.42940 132.69787 37917 ft 452 kts 156°
2026-04-26 11:11 28.37803 132.73932 37917 ft 453 kts 156°
2026-04-26 11:12 28.32658 132.78071 37918 ft 453 kts 156°
2026-04-26 11:12 28.27514 132.82200 37924 ft 453 kts 156°
2026-04-26 11:13 28.22369 132.86328 37923 ft 454 kts 156°
2026-04-26 11:13 28.17207 132.90465 37925 ft 454 kts 156°
2026-04-26 11:14 28.12040 132.94603 37922 ft 454 kts 156°
2026-04-26 11:14 28.06905 132.98711 37922 ft 455 kts 156°
2026-04-26 11:15 28.01689 133.02877 37927 ft 456 kts 156°
2026-04-26 11:15 27.96529 133.06995 37926 ft 458 kts 156°
2026-04-26 11:16 27.91300 133.11163 37927 ft 460 kts 156°
2026-04-26 11:16 27.86055 133.15338 37927 ft 462 kts 156°
2026-04-26 11:17 27.80796 133.19524 37928 ft 462 kts 156°
2026-04-26 11:17 27.75536 133.23711 37925 ft 462 kts 156°
2026-04-26 11:18 27.70278 133.27892 37926 ft 462 kts 156°
2026-04-26 11:18 27.65009 133.32076 37929 ft 462 kts 156°
2026-04-26 11:19 27.59743 133.36253 37926 ft 462 kts 156°
2026-04-26 11:19 27.54470 133.40429 37923 ft 464 kts 156°
2026-04-26 11:20 27.50073 133.43909 37928 ft 464 kts 156°
2026-04-26 11:20 27.43891 133.48796 37929 ft 464 kts 156°
2026-04-26 11:21 27.38604 133.52970 37928 ft 464 kts 156°
2026-04-26 11:21 27.33313 133.57143 37928 ft 464 kts 156°
2026-04-26 11:22 27.28019 133.61311 37926 ft 464 kts 156°
2026-04-26 11:22 27.22724 133.65477 37924 ft 464 kts 156°
2026-04-26 11:23 27.17421 133.69643 37931 ft 465 kts 156°
2026-04-26 11:23 27.12122 133.73802 37935 ft 465 kts 156°
2026-04-26 11:24 27.06817 133.77960 37935 ft 465 kts 156°
2026-04-26 11:24 27.01506 133.82119 37937 ft 465 kts 156°
2026-04-26 11:25 26.96197 133.86271 37932 ft 465 kts 156°
2026-04-26 11:25 26.90883 133.90424 37937 ft 465 kts 156°
2026-04-26 11:26 26.85566 133.94574 37935 ft 466 kts 156°
2026-04-26 11:26 26.80246 133.98722 37936 ft 466 kts 156°
2026-04-26 11:27 26.74917 134.02869 37936 ft 467 kts 156°
2026-04-26 11:27 26.69569 134.07022 37937 ft 468 kts 156°
2026-04-26 11:28 26.64212 134.11176 37936 ft 468 kts 156°
2026-04-26 11:28 26.58853 134.15328 37932 ft 469 kts 156°
2026-04-26 11:29 26.53487 134.19484 37937 ft 469 kts 156°
2026-04-26 11:29 26.48128 134.23629 37933 ft 469 kts 156°
2026-04-26 11:30 26.43667 134.27077 37936 ft 469 kts 156°
2026-04-26 11:30 26.37393 134.31917 37935 ft 469 kts 156°
2026-04-26 11:31 26.32062 134.36027 37937 ft 469 kts 156°
2026-04-26 11:31 26.26694 134.40161 37934 ft 469 kts 156°
2026-04-26 11:32 26.21320 134.44294 37935 ft 469 kts 156°
2026-04-26 11:32 26.15947 134.48422 37935 ft 469 kts 156°
2026-04-26 11:33 26.10574 134.52544 37933 ft 469 kts 156°
2026-04-26 11:33 26.05200 134.56663 37937 ft 469 kts 156°
2026-04-26 11:34 25.99817 134.60782 37937 ft 470 kts 156°
2026-04-26 11:34 25.94422 134.64903 37936 ft 471 kts 155°
2026-04-26 11:35 25.89017 134.69034 37942 ft 471 kts 155°
2026-04-26 11:35 25.84525 134.72466 37948 ft 471 kts 155°
2026-04-26 11:36 25.78206 134.77282 37952 ft 471 kts 155°
2026-04-26 11:36 25.72795 134.81402 37946 ft 471 kts 155°
2026-04-26 11:37 25.67377 134.85522 37949 ft 472 kts 155°
2026-04-26 11:37 25.61952 134.89644 37940 ft 473 kts 155°
2026-04-26 11:38 25.56520 134.93771 37951 ft 473 kts 155°
2026-04-26 11:38 25.51084 134.97888 37945 ft 472 kts 156°
2026-04-26 11:39 25.45524 135.01668 37948 ft 468 kts 159°
2026-04-26 11:39 25.39912 135.05338 37938 ft 468 kts 159°
2026-04-26 11:40 25.34301 135.09005 37948 ft 468 kts 159°
2026-04-26 11:40 25.28686 135.12673 37940 ft 469 kts 159°
2026-04-26 11:42 25.07125 135.26728 37945 ft 470 kts 158°
2026-04-26 11:43 25.01490 135.30392 37945 ft 470 kts 158°
2026-04-26 11:43 24.95851 135.34054 37947 ft 470 kts 158°
2026-04-26 11:44 24.90208 135.37715 37958 ft 470 kts 158°
2026-04-26 11:44 24.84560 135.41375 37951 ft 471 kts 158°
2026-04-26 11:45 24.78912 135.45031 37954 ft 471 kts 158°
2026-04-26 11:45 24.73302 135.48660 37954 ft 471 kts 158°
2026-04-26 11:46 24.67646 135.52313 37954 ft 471 kts 158°
2026-04-26 11:46 24.61994 135.55961 37954 ft 471 kts 158°
2026-04-26 11:47 24.56334 135.59609 37949 ft 471 kts 158°
2026-04-26 11:47 24.50674 135.63254 37955 ft 471 kts 157°
2026-04-26 11:48 24.45011 135.66897 37957 ft 472 kts 157°
2026-04-26 11:48 24.39338 135.70542 37961 ft 473 kts 157°
2026-04-26 11:49 24.33652 135.74192 37957 ft 473 kts 157°
2026-04-26 11:49 24.27969 135.77837 37950 ft 473 kts 157°
2026-04-26 11:50 24.22285 135.81479 37953 ft 473 kts 157°
2026-04-26 11:50 24.16603 135.85115 37951 ft 473 kts 157°
2026-04-26 11:51 24.10908 135.88756 37960 ft 473 kts 157°
2026-04-26 11:51 24.05217 135.92390 37959 ft 473 kts 157°
2026-04-26 11:52 23.99527 135.96021 37958 ft 473 kts 157°
2026-04-26 11:52 23.93837 135.99648 37963 ft 473 kts 157°
2026-04-26 11:53 23.88144 136.03272 37972 ft 473 kts 157°
2026-04-26 11:54 23.79602 136.08703 37964 ft 473 kts 157°
2026-04-26 11:54 23.73905 136.12319 37958 ft 473 kts 157°
2026-04-26 11:55 23.68208 136.15933 37966 ft 473 kts 157°
2026-04-26 11:55 23.62511 136.19544 37964 ft 473 kts 157°
2026-04-26 11:56 23.56810 136.23152 37967 ft 474 kts 156°
2026-04-26 11:56 23.51105 136.26760 37969 ft 474 kts 156°
2026-04-26 11:57 23.45390 136.30370 37956 ft 475 kts 156°
2026-04-26 11:57 23.39676 136.33977 37951 ft 475 kts 156°
2026-04-26 11:58 23.33957 136.37582 37957 ft 475 kts 156°
2026-04-26 11:58 23.28268 136.41165 37947 ft 476 kts 156°
2026-04-26 11:59 23.22495 136.44798 37950 ft 476 kts 156°
2026-04-26 11:59 23.16753 136.48407 37955 ft 477 kts 156°
2026-04-26 12:00 23.11049 136.51990 37952 ft 477 kts 156°
2026-04-26 12:00 23.05301 136.55595 37958 ft 477 kts 156°
2026-04-26 12:01 22.99554 136.59197 37949 ft 477 kts 156°
2026-04-26 12:01 22.93807 136.62795 37955 ft 477 kts 156°
2026-04-26 12:02 22.88050 136.66396 37952 ft 478 kts 156°
2026-04-26 12:02 22.82283 136.70000 37951 ft 478 kts 156°
2026-04-26 12:03 22.76510 136.73603 37948 ft 479 kts 156°
2026-04-26 12:03 22.70737 136.77203 37956 ft 479 kts 156°
2026-04-26 12:04 22.64964 136.80801 37951 ft 479 kts 156°
2026-04-26 12:04 22.59189 136.84395 37960 ft 479 kts 156°
2026-04-26 12:05 22.53405 136.87991 37961 ft 479 kts 156°
2026-04-26 12:05 22.47616 136.91587 37965 ft 479 kts 156°
2026-04-26 12:06 22.41829 136.95179 37959 ft 479 kts 156°
2026-04-26 12:06 22.36040 136.98767 37960 ft 479 kts 156°
2026-04-26 12:07 22.30252 137.02353 37969 ft 480 kts 156°
2026-04-26 12:07 22.24451 137.05943 37969 ft 480 kts 156°
2026-04-26 12:08 22.18648 137.09529 37965 ft 480 kts 156°
2026-04-26 12:08 22.12856 137.13114 37964 ft 480 kts 156°
2026-04-26 12:09 22.07062 137.16687 37978 ft 479 kts 156°
2026-04-26 12:09 22.01269 137.20255 37978 ft 479 kts 156°
2026-04-26 12:10 21.95511 137.23796 37971 ft 480 kts 156°
2026-04-26 12:10 21.89707 137.27367 37969 ft 480 kts 156°
2026-04-26 12:11 21.83901 137.30938 37978 ft 480 kts 156°
2026-04-26 12:11 21.78095 137.34504 37978 ft 480 kts 156°
2026-04-26 12:12 21.72291 137.38066 37964 ft 480 kts 156°
2026-04-26 12:12 21.66482 137.41627 37961 ft 480 kts 156°
2026-04-26 12:13 21.60674 137.45184 37977 ft 480 kts 156°
2026-04-26 12:13 21.54863 137.48739 37977 ft 480 kts 156°
2026-04-26 12:14 21.49055 137.52289 37967 ft 480 kts 156°
2026-04-26 12:14 21.43246 137.55838 37963 ft 480 kts 156°
2026-04-26 12:15 21.37437 137.59383 37978 ft 480 kts 156°
2026-04-26 12:15 21.31625 137.62924 37977 ft 480 kts 156°
2026-04-26 12:16 21.25813 137.66465 37967 ft 480 kts 156°
2026-04-26 12:16 21.19999 137.70004 37974 ft 480 kts 156°
2026-04-26 12:17 21.14186 137.73539 37978 ft 480 kts 156°
2026-04-26 12:17 21.08376 137.77071 37965 ft 480 kts 156°
2026-04-26 12:18 21.02615 137.80720 37969 ft 483 kts 152°
2026-04-26 12:18 20.97162 137.84982 37978 ft 488 kts 146°
2026-04-26 12:19 20.92059 137.89805 37960 ft 490 kts 143°
2026-04-26 12:19 20.87015 137.94706 37961 ft 489 kts 142°
2026-04-26 12:20 20.81972 137.99596 37977 ft 489 kts 142°
2026-04-26 12:20 20.76920 138.04482 37978 ft 490 kts 142°
2026-04-26 12:21 20.71864 138.09369 37964 ft 490 kts 142°
2026-04-26 12:21 20.66806 138.14255 37965 ft 490 kts 142°
2026-04-26 12:22 20.61780 138.19102 37978 ft 489 kts 142°
2026-04-26 12:22 20.56727 138.23973 37981 ft 489 kts 142°
2026-04-26 12:23 20.51674 138.28838 37982 ft 489 kts 142°
2026-04-26 12:23 20.46617 138.33702 37982 ft 489 kts 142°
2026-04-26 12:24 20.41564 138.38557 37982 ft 489 kts 142°
2026-04-26 12:24 20.36504 138.43414 37977 ft 489 kts 142°
2026-04-26 12:25 20.28920 138.50687 37965 ft 489 kts 142°
2026-04-26 12:25 20.23863 138.55530 37978 ft 489 kts 142°
2026-04-26 12:26 20.18799 138.60376 37978 ft 489 kts 142°
2026-04-26 12:26 20.13733 138.65220 37958 ft 489 kts 142°
2026-04-26 12:27 20.08664 138.70062 37962 ft 489 kts 142°
2026-04-26 12:27 20.03589 138.74905 37977 ft 490 kts 142°
2026-04-26 12:28 19.99341 138.78955 37972 ft 490 kts 142°
2026-04-26 12:28 19.94261 138.83788 37962 ft 490 kts 142°
2026-04-26 12:29 19.89186 138.88622 37979 ft 490 kts 142°
2026-04-26 12:30 19.81563 138.95873 37962 ft 490 kts 142°
2026-04-26 12:30 19.76517 139.00666 37959 ft 490 kts 141°
2026-04-26 12:31 19.68881 139.07911 37977 ft 490 kts 141°
2026-04-26 12:31 19.63788 139.12737 37977 ft 491 kts 141°
2026-04-26 12:32 19.58693 139.17563 37965 ft 491 kts 141°
2026-04-26 12:33 19.51039 139.24800 37978 ft 491 kts 141°
2026-04-26 12:33 19.45937 139.29621 37977 ft 491 kts 141°
2026-04-26 12:34 19.40830 139.34441 37966 ft 491 kts 141°
2026-04-26 12:34 19.35722 139.39258 37964 ft 491 kts 141°
2026-04-26 12:35 19.30609 139.44074 37978 ft 491 kts 141°
2026-04-26 12:35 19.25497 139.48888 37977 ft 491 kts 141°
2026-04-26 12:36 19.20382 139.53699 37969 ft 492 kts 141°
2026-04-26 12:36 19.15267 139.58505 37962 ft 491 kts 141°
2026-04-26 12:37 19.10147 139.63312 37978 ft 492 kts 141°
2026-04-26 12:37 19.05031 139.68113 37978 ft 492 kts 141°
2026-04-26 12:38 18.99909 139.72912 37963 ft 491 kts 141°
2026-04-26 12:38 18.94790 139.77708 37962 ft 492 kts 141°
2026-04-26 12:39 18.89663 139.82504 37978 ft 492 kts 141°
2026-04-26 12:39 18.84540 139.87295 37974 ft 492 kts 141°
2026-04-26 12:40 18.79411 139.92085 37967 ft 492 kts 141°
2026-04-26 12:40 18.74280 139.96874 37967 ft 492 kts 141°
2026-04-26 12:41 18.69150 140.01658 37978 ft 492 kts 140°
2026-04-26 12:41 18.64003 140.06451 37978 ft 493 kts 140°
2026-04-26 12:42 18.58855 140.11245 37970 ft 493 kts 140°
2026-04-26 12:42 18.53708 140.16036 37963 ft 494 kts 140°
2026-04-26 12:43 18.48590 140.20794 37979 ft 493 kts 140°
2026-04-26 12:43 18.43437 140.25579 37961 ft 493 kts 140°
2026-04-26 12:44 18.38285 140.30361 37960 ft 494 kts 140°
2026-04-26 12:44 18.33128 140.35141 37978 ft 493 kts 140°
2026-04-26 12:45 18.27972 140.39919 37978 ft 493 kts 140°
2026-04-26 12:45 18.22816 140.44690 37977 ft 493 kts 140°
2026-04-26 12:46 18.17659 140.49459 37961 ft 493 kts 140°
2026-04-26 12:46 18.12509 140.54219 37965 ft 493 kts 140°
2026-04-26 12:47 18.07354 140.58979 37978 ft 493 kts 140°
2026-04-26 12:47 18.02194 140.63740 37961 ft 493 kts 140°
2026-04-26 12:48 17.97033 140.68496 37970 ft 493 kts 140°
2026-04-26 12:48 17.91871 140.73249 37973 ft 494 kts 140°
2026-04-26 12:49 17.86699 140.78011 37971 ft 494 kts 140°
2026-04-26 12:49 17.81526 140.82769 37962 ft 494 kts 140°
2026-04-26 12:50 17.76346 140.87529 37962 ft 495 kts 140°
2026-04-26 12:50 17.71165 140.92286 37965 ft 495 kts 140°
2026-04-26 12:51 17.66017 140.97010 37963 ft 494 kts 140°
2026-04-26 12:51 17.60837 141.01758 37968 ft 494 kts 140°
2026-04-26 12:52 17.55654 141.06505 37959 ft 494 kts 140°
2026-04-26 12:52 17.50468 141.11251 37965 ft 495 kts 140°
2026-04-26 12:53 17.45282 141.15994 37968 ft 495 kts 140°
2026-04-26 12:53 17.40090 141.20739 37960 ft 495 kts 140°
2026-04-26 12:54 17.34898 141.25479 37968 ft 495 kts 140°
2026-04-26 12:54 17.29701 141.30220 37955 ft 495 kts 140°
2026-04-26 12:55 17.24504 141.34959 37969 ft 495 kts 139°
2026-04-26 12:55 17.19304 141.39696 37973 ft 495 kts 139°
2026-04-26 12:56 17.14113 141.44421 37960 ft 494 kts 139°
2026-04-26 12:56 17.08919 141.49146 37965 ft 495 kts 139°
2026-04-26 12:57 17.03720 141.53872 37958 ft 495 kts 139°
2026-04-26 12:57 16.98520 141.58594 37966 ft 495 kts 139°
2026-04-26 12:58 16.90725 141.65667 37961 ft 495 kts 139°
2026-04-26 12:58 16.85522 141.70383 37959 ft 494 kts 139°
2026-04-26 12:59 16.80323 141.75093 37966 ft 495 kts 139°
2026-04-26 12:59 16.75121 141.79803 37961 ft 495 kts 139°
2026-04-26 13:00 16.69915 141.84514 37959 ft 495 kts 139°
2026-04-26 13:00 16.64706 141.89225 37963 ft 495 kts 139°
2026-04-26 13:01 16.59502 141.93927 37963 ft 495 kts 139°
2026-04-26 13:01 16.54296 141.98640 37964 ft 495 kts 139°
2026-04-26 13:02 16.49106 142.03352 37970 ft 495 kts 139°
2026-04-26 13:02 16.43948 142.08037 37978 ft 495 kts 139°
2026-04-26 13:03 16.38750 142.12754 37974 ft 495 kts 139°
2026-04-26 13:03 16.33551 142.17469 37961 ft 495 kts 139°
2026-04-26 13:04 16.28354 142.22180 37978 ft 495 kts 139°
2026-04-26 13:04 16.23153 142.26889 37946 ft 495 kts 139°
2026-04-26 13:05 16.18075 142.31486 37937 ft 495 kts 139°
2026-04-26 13:05 16.12738 142.36314 37928 ft 495 kts 139°
2026-04-26 13:06 16.07538 142.41013 37924 ft 495 kts 139°
2026-04-26 13:06 16.02324 142.45713 37928 ft 495 kts 139°
2026-04-26 13:07 15.97120 142.50399 37928 ft 495 kts 139°
2026-04-26 13:07 15.91910 142.55091 37923 ft 495 kts 139°
2026-04-26 13:08 15.86703 142.59781 37928 ft 495 kts 139°
2026-04-26 13:08 15.81490 142.64472 37925 ft 496 kts 139°
2026-04-26 13:09 15.76270 142.69167 37927 ft 496 kts 139°
2026-04-26 13:09 15.71053 142.73855 37926 ft 496 kts 139°
2026-04-26 13:10 15.65837 142.78540 37923 ft 496 kts 138°
2026-04-26 13:10 15.60615 142.83226 37928 ft 496 kts 138°
2026-04-26 13:11 15.56277 142.87115 37927 ft 496 kts 138°
2026-04-26 13:11 15.50203 142.92559 37928 ft 496 kts 138°
2026-04-26 13:12 15.44976 142.97240 37926 ft 496 kts 138°
2026-04-26 13:12 15.40599 143.01159 37921 ft 496 kts 138°
2026-04-26 13:13 15.34525 143.06591 37918 ft 496 kts 138°
2026-04-26 13:13 15.30143 143.10507 37917 ft 496 kts 138°
2026-04-26 13:14 15.24907 143.15184 37917 ft 497 kts 138°
2026-04-26 13:14 15.19674 143.19856 37917 ft 497 kts 138°
2026-04-26 13:15 15.14473 143.24496 37917 ft 497 kts 138°
2026-04-26 13:15 15.09236 143.29165 37925 ft 497 kts 138°
2026-04-26 13:16 15.03998 143.33831 37945 ft 496 kts 138°
2026-04-26 13:16 14.98761 143.38494 37945 ft 496 kts 138°
2026-04-26 13:17 14.90906 143.45482 37949 ft 496 kts 138°
2026-04-26 13:18 14.83049 143.52468 37945 ft 496 kts 138°
2026-04-26 13:19 14.75188 143.59451 37945 ft 496 kts 138°
2026-04-26 13:19 14.69778 143.63872 37961 ft 496 kts 143°
2026-04-26 13:20 14.64151 143.68011 37982 ft 496 kts 143°
2026-04-26 13:20 14.58522 143.72139 37983 ft 496 kts 143°
2026-04-26 13:21 14.52891 143.76273 37983 ft 495 kts 143°
2026-04-26 13:21 14.47274 143.80396 37982 ft 495 kts 143°
2026-04-26 13:22 14.41655 143.84521 37982 ft 495 kts 143°
2026-04-26 13:22 14.36036 143.88644 37982 ft 495 kts 143°
2026-04-26 13:23 14.30416 143.92764 37982 ft 495 kts 143°
2026-04-26 13:23 14.24797 143.96882 37981 ft 495 kts 143°
2026-04-26 13:24 14.19172 144.01000 37982 ft 495 kts 143°
2026-04-26 13:24 14.13552 144.05113 37954 ft 495 kts 143°
2026-04-26 13:25 14.07928 144.09227 37959 ft 495 kts 143°
2026-04-26 13:25 14.02341 144.13310 37954 ft 495 kts 143°
2026-04-26 13:26 13.96722 144.17415 37951 ft 495 kts 143°
2026-04-26 13:26 13.91098 144.21522 37962 ft 495 kts 143°
2026-04-26 13:27 13.85474 144.25625 37964 ft 496 kts 143°
2026-04-26 13:27 13.79842 144.29732 37965 ft 495 kts 144°
2026-04-26 13:28 13.74224 144.33826 37967 ft 495 kts 144°
2026-04-26 13:28 13.68601 144.37922 37977 ft 495 kts 144°
2026-04-26 13:29 13.63000 144.41999 37838 ft 488 kts 144°
2026-04-26 13:29 13.61169 144.43332 37599 ft 485 kts 144°
2026-04-26 13:29 13.57520 144.45986 36767 ft 475 kts 144°
2026-04-26 13:29 13.54845 144.47931 36025 ft 467 kts 144°
2026-04-26 13:30 13.52206 144.49850 35220 ft 462 kts 144°
2026-04-26 13:30 13.49596 144.51748 34359 ft 458 kts 144°
2026-04-26 13:30 13.47003 144.53634 33492 ft 455 kts 143°
2026-04-26 13:30 13.44426 144.55508 32653 ft 451 kts 144°
2026-04-26 13:31 13.41882 144.57358 31893 ft 445 kts 144°
2026-04-26 13:31 13.39370 144.59181 31171 ft 438 kts 145°
2026-04-26 13:31 13.36711 144.60653 30355 ft 433 kts 164°
2026-04-26 13:31 13.33763 144.61038 29574 ft 425 kts 187°
2026-04-26 13:32 13.30954 144.60285 28889 ft 414 kts 208°
2026-04-26 13:32 13.28631 144.58633 28187 ft 403 kts 228°
2026-04-26 13:32 13.27015 144.56343 27448 ft 392 kts 247°
2026-04-26 13:32 13.26232 144.53705 26717 ft 383 kts 266°
2026-04-26 13:33 13.26303 144.51010 25991 ft 375 kts 284°
2026-04-26 13:33 13.27166 144.48525 25264 ft 367 kts 301°
2026-04-26 13:33 13.28671 144.46493 24559 ft 360 kts 319°
2026-04-26 13:33 13.30628 144.44922 23883 ft 354 kts 325°
2026-04-26 13:34 13.32629 144.43469 23201 ft 350 kts 326°
2026-04-26 13:34 13.34609 144.42029 22531 ft 346 kts 325°
2026-04-26 13:34 13.36556 144.40602 21895 ft 341 kts 325°
2026-04-26 13:34 13.37828 144.39666 21473 ft 338 kts 325°
2026-04-26 13:35 13.40497 144.38033 20594 ft 331 kts 342°
2026-04-26 13:35 13.42722 144.37535 19975 ft 325 kts 358°
2026-04-26 13:35 13.44949 144.37682 19363 ft 319 kts 13°
2026-04-26 13:35 13.47023 144.38426 18746 ft 315 kts 28°
2026-04-26 13:36 13.48811 144.39692 18142 ft 311 kts 43°
2026-04-26 13:36 13.50199 144.41375 17532 ft 308 kts 58°
2026-04-26 13:36 13.51111 144.43348 16930 ft 305 kts 72°
2026-04-26 13:36 13.51499 144.45472 16344 ft 302 kts 88°
2026-04-26 13:37 13.51350 144.47612 15768 ft 299 kts 102°
2026-04-26 13:37 13.50689 144.49617 15212 ft 295 kts 117°
2026-04-26 13:37 13.49581 144.51366 14672 ft 290 kts 131°
2026-04-26 13:37 13.48116 144.52764 14151 ft 286 kts 142°
2026-04-26 13:38 13.46521 144.53956 13640 ft 281 kts 144°
2026-04-26 13:38 13.44937 144.55108 13126 ft 277 kts 144°
2026-04-26 13:38 13.43402 144.56227 12636 ft 272 kts 144°
2026-04-26 13:38 13.41876 144.57345 12141 ft 267 kts 144°
2026-04-26 13:39 13.40377 144.58449 11640 ft 263 kts 144°
2026-04-26 13:39 13.38896 144.59533 11139 ft 259 kts 147°
2026-04-26 13:39 13.37305 144.60378 10592 ft 258 kts 159°
2026-04-26 13:39 13.35572 144.60832 10073 ft 257 kts 171°
2026-04-26 13:40 13.33787 144.60890 9525 ft 258 kts 184°
2026-04-26 13:40 13.32028 144.60546 8995 ft 258 kts 195°
2026-04-26 13:40 13.30374 144.59824 8465 ft 259 kts 208°
2026-04-26 13:40 13.28905 144.58743 7976 ft 260 kts 220°
2026-04-26 13:41 13.27705 144.57363 7491 ft 260 kts 233°
2026-04-26 13:41 13.26828 144.55748 7032 ft 259 kts 247°
2026-04-26 13:41 13.26317 144.53982 6567 ft 258 kts 260°
2026-04-26 13:41 13.26193 144.52153 6105 ft 256 kts 274°
2026-04-26 13:42 13.26452 144.50353 5662 ft 254 kts 287°
2026-04-26 13:42 13.27075 144.48673 5235 ft 250 kts 300°
2026-04-26 13:42 13.28012 144.47194 4801 ft 245 kts 313°
2026-04-26 13:42 13.29203 144.45971 4372 ft 240 kts 326°
2026-04-26 13:43 13.30534 144.44961 3959 ft 236 kts 329°
2026-04-26 13:43 13.31877 144.44002 3548 ft 234 kts 329°
2026-04-26 13:43 13.33206 144.43048 3146 ft 232 kts 329°
2026-04-26 13:43 13.34512 144.42098 2987 ft 230 kts 329°
2026-04-26 13:44 13.35798 144.41156 2984 ft 230 kts 329°
2026-04-26 13:44 13.37099 144.40200 2981 ft 230 kts 329°
2026-04-26 13:44 13.38397 144.39244 2982 ft 230 kts 329°
2026-04-26 13:44 13.39748 144.38383 2981 ft 227 kts 340°
2026-04-26 13:45 13.41207 144.37813 2981 ft 223 kts 351°
2026-04-26 13:45 13.42724 144.37547 2980 ft 219 kts
2026-04-26 13:45 13.44230 144.37577 2983 ft 215 kts 12°
2026-04-26 13:45 13.45689 144.37888 2983 ft 213 kts 22°
2026-04-26 13:46 13.47055 144.38460 2983 ft 211 kts 32°
2026-04-26 13:46 13.48287 144.39266 2982 ft 209 kts 41°
2026-04-26 13:46 13.49348 144.40275 2986 ft 207 kts 50°
2026-04-26 13:46 13.50214 144.41446 3003 ft 205 kts 59°
2026-04-26 13:47 13.50867 144.42751 3010 ft 205 kts 69°
2026-04-26 13:47 13.51289 144.44157 3020 ft 206 kts 78°
2026-04-26 13:47 13.51467 144.45624 3022 ft 207 kts 87°
2026-04-26 13:47 13.51391 144.47100 3019 ft 207 kts 96°
2026-04-26 13:48 13.51064 144.48548 3020 ft 209 kts 106°
2026-04-26 13:48 13.50485 144.49927 3017 ft 212 kts 115°
2026-04-26 13:48 13.49664 144.51197 3020 ft 215 kts 126°
2026-04-26 13:48 13.48620 144.52304 3021 ft 217 kts 135°
2026-04-26 13:49 13.47416 144.53255 3014 ft 219 kts 139°
2026-04-26 13:49 13.46183 144.54172 2997 ft 218 kts 139°
2026-04-26 13:49 13.44949 144.55079 2989 ft 218 kts 139°
2026-04-26 13:49 13.43716 144.55986 2985 ft 218 kts 139°
2026-04-26 13:50 13.42500 144.56881 2982 ft 218 kts 139°
2026-04-26 13:50 13.41247 144.57805 2982 ft 219 kts 139°
2026-04-26 13:50 13.40026 144.58706 2982 ft 219 kts 139°
2026-04-26 13:50 13.38777 144.59613 2979 ft 220 kts 143°
2026-04-26 13:51 13.37405 144.60337 2981 ft 224 kts 154°
2026-04-26 13:51 13.35979 144.60771 2981 ft 228 kts 165°
2026-04-26 13:51 13.34393 144.60935 2981 ft 231 kts 176°
2026-04-26 13:51 13.32780 144.60769 2982 ft 235 kts 188°
2026-04-26 13:52 13.31206 144.60277 2982 ft 238 kts 200°
2026-04-26 13:52 13.29744 144.59464 2979 ft 241 kts 212°
2026-04-26 13:52 13.28454 144.58350 2980 ft 244 kts 225°
2026-04-26 13:52 13.27410 144.56979 2983 ft 245 kts 238°
2026-04-26 13:53 13.26659 144.55403 2980 ft 246 kts 251°
2026-04-26 13:53 13.26243 144.53704 2982 ft 245 kts 264°
2026-04-26 13:53 13.26179 144.51964 2982 ft 243 kts 277°
2026-04-26 13:53 13.26461 144.50255 2981 ft 242 kts 290°
2026-04-26 13:54 13.27071 144.48658 2982 ft 238 kts 302°
2026-04-26 13:54 13.27967 144.47245 2982 ft 234 kts 315°
2026-04-26 13:54 13.29098 144.46065 2981 ft 231 kts 326°
2026-04-26 13:55 13.31695 144.44143 2983 ft 230 kts 330°
2026-04-26 13:55 13.32563 144.43520 2982 ft 230 kts 330°
2026-04-26 13:55 13.35595 144.41311 2982 ft 230 kts 329°
2026-04-26 13:56 13.36894 144.40354 2981 ft 229 kts 329°
2026-04-26 13:56 13.38187 144.39399 2979 ft 229 kts 329°
2026-04-26 13:56 13.39513 144.38507 2978 ft 226 kts 338°
2026-04-26 13:56 13.40950 144.37890 2980 ft 222 kts 349°
2026-04-26 13:57 13.42342 144.37585 2982 ft 219 kts 359°
2026-04-26 13:57 13.43849 144.37545 3012 ft 216 kts
2026-04-26 13:57 13.45224 144.38036 2968 ft 208 kts 44°
2026-04-26 13:57 13.46019 144.39233 2980 ft 205 kts 76°
2026-04-26 13:58 13.46175 144.40712 3000 ft 216 kts 88°
2026-04-26 13:58 13.46156 144.42346 2999 ft 238 kts 90°
2026-04-26 13:58 13.46103 144.44065 2988 ft 242 kts 91°
2026-04-26 13:58 13.45965 144.45799 2979 ft 245 kts 101°
2026-04-26 13:59 13.45441 144.47472 2983 ft 247 kts 109°
2026-04-26 13:59 13.44789 144.49103 2983 ft 246 kts 110°
2026-04-26 13:59 13.44116 144.50723 2982 ft 246 kts 110°
2026-04-26 14:00 13.42083 144.55583 2982 ft 246 kts 110°
2026-04-26 14:00 13.41419 144.57169 2970 ft 234 kts 110°
2026-04-26 14:00 13.40998 144.58167 2958 ft 225 kts 110°
2026-04-26 14:01 13.40237 144.60067 2930 ft 204 kts 96°
2026-04-26 14:01 13.40312 144.61469 2972 ft 196 kts 75°
2026-04-26 14:01 13.40769 144.62779 2986 ft 194 kts 67°
2026-04-26 14:01 13.41331 144.64020 2982 ft 194 kts 65°
2026-04-26 14:02 13.41920 144.65270 2947 ft 195 kts 65°
2026-04-26 14:02 13.42503 144.66526 2741 ft 194 kts 65°
2026-04-26 14:02 13.43070 144.67768 2505 ft 190 kts 64°
2026-04-26 14:02 13.43627 144.68993 2238 ft 188 kts 65°
2026-04-26 14:03 13.44176 144.70206 1963 ft 185 kts 64°
2026-04-26 14:03 13.44706 144.71377 1719 ft 176 kts 64°
2026-04-26 14:03 13.45206 144.72480 1445 ft 164 kts 65°
2026-04-26 14:03 13.45681 144.73501 1241 ft 155 kts 58°
2026-04-26 14:04 13.46133 144.74492 1002 ft 152 kts 63°
2026-04-26 14:04 13.46560 144.75485 847 ft 152 kts 61°
2026-04-26 14:04 13.47011 144.76464 668 ft 151 kts 59°
2026-04-26 14:04 13.47310 144.77120 542 ft 149 kts 62°
2026-04-26 14:05 13.47886 144.78393 292 ft 146 kts 60°
2026-04-26 14:05 13.48178 144.79008 265 ft 133 kts 64°
2026-04-26 14:05 13.48528 144.79782 277 ft 47 kts 65°
2026-04-26 14:05 13.48611 144.79966 284 ft 35 kts 66°
2026-04-26 14:06 13.48707 144.80169 294 ft 28 kts 55°
2026-04-26 14:06 13.48839 144.80305 299 ft 27 kts 36°
2026-04-26 14:06 13.48974 144.80406 296 ft 20 kts 40°